Time,TemperatureF,DewpointF,PressureIn,WindDirection,WindDirectionDegrees,WindSpeedMPH,WindSpeedGustMPH,Humidity,HourlyPrecipIn,Conditions,Clouds,dailyrainin,SoftwareType,DateUTC
2013-04-26 00:02:00,30.0,25.0,30.21,South,173,0.0,-999.0,81,-99.99,,,-99.99,,2013-04-26 04:02:00,
2013-04-26 00:12:00,30.0,25.0,30.21,South,173,0.0,-999.0,81,-99.99,,,-99.99,,2013-04-26 04:12:00,
2013-04-26 00:22:00,30.0,25.0,30.21,South,173,0.0,-999.0,82,-99.99,,,-99.99,,2013-04-26 04:22:00,
2013-04-26 00:32:00,29.0,24.0,30.22,South,173,0.0,-999.0,82,-99.99,,,-99.99,,2013-04-26 04:32:00,
2013-04-26 00:43:00,29.0,24.0,30.22,South,173,0.0,-999.0,82,-99.99,,,-99.99,,2013-04-26 04:43:00,
2013-04-26 00:53:00,30.0,25.0,30.22,South,173,0.0,-999.0,82,-99.99,,,-99.99,,2013-04-26 04:53:00,
2013-04-26 01:02:00,29.0,24.0,30.22,South,173,0.0,-999.0,82,-99.99,,,-99.99,,2013-04-26 05:02:00,
2013-04-26 01:12:00,29.0,24.0,30.22,South,173,0.0,-999.0,82,-99.99,,,-99.99,,2013-04-26 05:12:00,
2013-04-26 01:22:00,29.0,25.0,30.23,South,173,0.0,-999.0,83,-99.99,,,-99.99,,2013-04-26 05:22:00,
2013-04-26 01:32:00,30.0,25.0,30.22,South,182,2.0,-999.0,82,-99.99,,,-99.99,,2013-04-26 05:32:00,
2013-04-26 01:42:00,30.0,25.0,30.22,South,182,2.0,-999.0,82,-99.99,,,-99.99,,2013-04-26 05:42:00,
2013-04-26 01:52:00,30.0,24.0,30.22,South,182,0.0,-999.0,79,-99.99,,,-99.99,,2013-04-26 05:52:00,
2013-04-26 02:02:00,30.0,25.0,30.22,South,182,0.0,-999.0,80,-99.99,,,-99.99,,2013-04-26 06:02:00,
2013-04-26 02:11:00,30.0,25.0,30.22,South,182,0.0,-999.0,80,-99.99,,,-99.99,,2013-04-26 06:11:00,
2013-04-26 02:21:00,29.0,24.0,30.23,South,182,0.0,-999.0,81,-99.99,,,-99.99,,2013-04-26 06:21:00,
2013-04-26 02:32:00,28.0,24.0,30.23,South,182,0.0,-999.0,83,-99.99,,,-99.99,,2013-04-26 06:32:00,
2013-04-26 02:42:00,28.0,24.0,30.23,South,182,0.0,-999.0,83,-99.99,,,-99.99,,2013-04-26 06:42:00,
2013-04-26 02:52:00,28.0,23.0,30.23,South,182,0.0,-999.0,82,-99.99,,,-99.99,,2013-04-26 06:52:00,
2013-04-26 03:01:00,28.0,23.0,30.22,South,182,0.0,-999.0,82,-99.99,,,-99.99,,2013-04-26 07:01:00,
2013-04-26 03:11:00,28.0,23.0,30.22,South,182,0.0,-999.0,82,-99.99,,,-99.99,,2013-04-26 07:11:00,
2013-04-26 03:22:00,29.0,24.0,30.22,South,182,0.0,-999.0,80,-99.99,,,-99.99,,2013-04-26 07:22:00,
2013-04-26 03:31:00,29.0,24.0,30.22,South,181,0.0,-999.0,81,-99.99,,,-99.99,,2013-04-26 07:31:00,
2013-04-26 03:42:00,29.0,24.0,30.22,South,181,0.0,-999.0,81,-99.99,,,-99.99,,2013-04-26 07:42:00,
2013-04-26 03:52:00,28.0,23.0,30.22,South,181,0.0,-999.0,82,-99.99,,,-99.99,,2013-04-26 07:52:00,
2013-04-26 04:02:00,28.0,24.0,30.22,South,181,0.0,-999.0,83,-99.99,,,-99.99,,2013-04-26 08:02:00,
2013-04-26 04:11:00,28.0,24.0,30.22,South,181,0.0,-999.0,83,-99.99,,,-99.99,,2013-04-26 08:11:00,
2013-04-26 04:21:00,28.0,24.0,30.22,South,182,0.0,-999.0,84,-99.99,,,-99.99,,2013-04-26 08:21:00,
2013-04-26 04:32:00,29.0,25.0,30.22,South,182,1.0,-999.0,83,-99.99,,,-99.99,,2013-04-26 08:32:00,
2013-04-26 04:42:00,29.0,25.0,30.22,South,182,1.0,-999.0,83,-99.99,,,-99.99,,2013-04-26 08:42:00,
2013-04-26 04:52:00,30.0,25.0,30.22,SSW,198,3.0,-999.0,80,-99.99,,,-99.99,,2013-04-26 08:52:00,
2013-04-26 05:01:00,31.0,25.0,30.22,SSW,193,3.0,-999.0,77,-99.99,,,-99.99,,2013-04-26 09:01:00,
2013-04-26 05:11:00,31.0,25.0,30.22,SSW,193,3.0,-999.0,77,-99.99,,,-99.99,,2013-04-26 09:11:00,
2013-04-26 05:21:00,31.0,25.0,30.22,SSW,194,2.0,-999.0,78,-99.99,,,-99.99,,2013-04-26 09:21:00,
2013-04-26 05:33:00,31.0,25.0,30.22,SSW,194,2.0,-999.0,78,-99.99,,,-99.99,,2013-04-26 09:33:00,
2013-04-26 05:42:00,31.0,25.0,30.22,SSW,194,2.0,-999.0,78,-99.99,,,-99.99,,2013-04-26 09:42:00,
2013-04-26 05:53:00,31.0,25.0,30.22,SSW,193,4.0,-999.0,79,-99.99,,,-99.99,,2013-04-26 09:53:00,
2013-04-26 06:03:00,31.0,25.0,30.22,SSW,202,3.0,-999.0,78,-99.99,,,-99.99,,2013-04-26 10:03:00,
2013-04-26 06:12:00,31.0,25.0,30.22,SSW,202,3.0,-999.0,78,-99.99,,,-99.99,,2013-04-26 10:12:00,
2013-04-26 06:23:00,31.0,25.0,30.22,SSW,194,3.0,-999.0,79,-99.99,,,-99.99,,2013-04-26 10:23:00,
2013-04-26 06:33:00,31.0,25.0,30.22,South,190,2.0,-999.0,79,-99.99,,,-99.99,,2013-04-26 10:33:00,
2013-04-26 06:42:00,31.0,25.0,30.22,South,190,2.0,-999.0,79,-99.99,,,-99.99,,2013-04-26 10:42:00,
2013-04-26 06:52:00,31.0,26.0,30.21,South,191,1.0,-999.0,80,-99.99,,,-99.99,,2013-04-26 10:52:00,
2013-04-26 07:02:00,31.0,26.0,30.21,South,185,2.0,-999.0,80,-99.99,,,-99.99,,2013-04-26 11:02:00,
2013-04-26 07:11:00,31.0,26.0,30.21,South,185,2.0,-999.0,80,-99.99,,,-99.99,,2013-04-26 11:11:00,
2013-04-26 07:22:00,32.0,27.0,30.21,South,189,3.0,-999.0,80,-99.99,,,-99.99,,2013-04-26 11:22:00,
2013-04-26 07:32:00,32.0,26.0,30.21,SSW,200,3.0,-999.0,79,-99.99,,,-99.99,,2013-04-26 11:32:00,
2013-04-26 07:41:00,32.0,26.0,30.21,SSW,200,3.0,-999.0,79,-99.99,,,-99.99,,2013-04-26 11:41:00,
2013-04-26 07:52:00,33.0,27.0,30.21,SSW,202,4.0,-999.0,78,-99.99,,,-99.99,,2013-04-26 11:52:00,
2013-04-26 08:01:00,33.0,27.0,30.22,SSW,196,3.0,-999.0,78,-99.99,,,-99.99,,2013-04-26 12:01:00,
2013-04-26 08:11:00,33.0,27.0,30.22,SSW,196,3.0,-999.0,78,-99.99,,,-99.99,,2013-04-26 12:11:00,
2013-04-26 08:21:00,34.0,28.0,30.21,SSW,195,4.0,-999.0,77,-99.99,,,-99.99,,2013-04-26 12:21:00,
2013-04-26 08:32:00,35.0,28.0,30.20,SSW,194,4.0,-999.0,75,-99.99,,,-99.99,,2013-04-26 12:32:00,
2013-04-26 08:42:00,35.0,28.0,30.20,SSW,194,4.0,-999.0,75,-99.99,,,-99.99,,2013-04-26 12:42:00,
2013-04-26 08:52:00,35.0,28.0,30.21,SSW,209,6.0,-999.0,75,-99.99,,,-99.99,,2013-04-26 12:52:00,
2013-04-26 09:01:00,36.0,29.0,30.20,SSW,197,5.0,-999.0,75,-99.99,,,-99.99,,2013-04-26 13:01:00,
2013-04-26 09:11:00,36.0,29.0,30.20,SSW,197,5.0,-999.0,75,-99.99,,,-99.99,,2013-04-26 13:11:00,
2013-04-26 09:21:00,36.0,29.0,30.21,SSW,209,5.0,-999.0,76,-99.99,,,-99.99,,2013-04-26 13:21:00,
2013-04-26 09:31:00,35.0,30.0,30.21,SSW,194,6.0,-999.0,81,-99.99,,,-99.99,,2013-04-26 13:31:00,
2013-04-26 09:42:00,35.0,30.0,30.21,SSW,194,6.0,-999.0,81,-99.99,,,-99.99,,2013-04-26 13:42:00,
2013-04-26 09:52:00,35.0,31.0,30.21,South,190,7.0,-999.0,86,-99.99,,,-99.99,,2013-04-26 13:52:00,
2013-04-26 10:01:00,35.0,32.0,30.21,South,188,6.0,-999.0,89,-99.99,,,-99.99,,2013-04-26 14:01:00,
2013-04-26 10:11:00,35.0,32.0,30.21,South,188,6.0,-999.0,89,-99.99,,,-99.99,,2013-04-26 14:11:00,
2013-04-26 10:21:00,35.0,33.0,30.19,SSW,194,5.0,-999.0,91,-99.99,,,-99.99,,2013-04-26 14:21:00,
2013-04-26 10:32:00,35.0,33.0,30.19,South,184,5.0,-999.0,91,-99.99,,,-99.99,,2013-04-26 14:32:00,
2013-04-26 10:41:00,35.0,33.0,30.19,South,184,5.0,-999.0,91,-99.99,,,-99.99,,2013-04-26 14:41:00,
2013-04-26 10:52:00,36.0,34.0,30.19,South,184,6.0,-999.0,92,-99.99,,,-99.99,,2013-04-26 14:52:00,
2013-04-26 11:01:00,37.0,35.0,30.18,SSW,200,7.0,-999.0,92,-99.99,,,-99.99,,2013-04-26 15:01:00,
2013-04-26 11:12:00,37.0,35.0,30.18,SSW,200,7.0,-999.0,92,-99.99,,,-99.99,,2013-04-26 15:12:00,
2013-04-26 11:21:00,38.0,36.0,30.18,South,190,6.0,-999.0,92,-99.99,,,-99.99,,2013-04-26 15:21:00,
2013-04-26 11:33:00,38.0,35.0,30.17,South,171,8.0,-999.0,88,-99.99,,,-99.99,,2013-04-26 15:33:00,
2013-04-26 11:43:00,38.0,35.0,30.17,South,171,8.0,-999.0,88,-99.99,,,-99.99,,2013-04-26 15:43:00,
2013-04-26 11:53:00,38.0,34.0,30.17,SSE,159,8.0,-999.0,85,-99.99,,,-99.99,,2013-04-26 15:53:00,
2013-04-26 12:03:00,39.0,35.0,30.16,South,187,8.0,-999.0,84,-99.99,,,-99.99,,2013-04-26 16:03:00,
2013-04-26 12:12:00,39.0,35.0,30.16,South,187,8.0,-999.0,84,-99.99,,,-99.99,,2013-04-26 16:12:00,
2013-04-26 12:23:00,40.0,35.0,30.16,South,178,8.0,-999.0,81,-99.99,,,-99.99,,2013-04-26 16:23:00,
2013-04-26 12:33:00,41.0,35.0,30.16,SSW,205,10.0,-999.0,80,-99.99,,,-99.99,,2013-04-26 16:33:00,
2013-04-26 12:42:00,41.0,35.0,30.16,SSW,205,10.0,-999.0,80,-99.99,,,-99.99,,2013-04-26 16:42:00,
2013-04-26 12:52:00,41.0,35.0,30.16,SSW,210,10.0,-999.0,80,-99.99,,,-99.99,,2013-04-26 16:52:00,
2013-04-26 13:02:00,43.0,37.0,30.16,SSW,200,9.0,-999.0,79,-99.99,,,-99.99,,2013-04-26 17:02:00,
2013-04-26 13:12:00,43.0,37.0,30.16,SSW,200,9.0,-999.0,79,-99.99,,,-99.99,,2013-04-26 17:12:00,
2013-04-26 13:21:00,44.0,37.0,30.15,South,184,10.0,-999.0,76,-99.99,,,-99.99,,2013-04-26 17:21:00,
2013-04-26 13:31:00,44.0,36.0,30.14,SSW,207,11.0,-999.0,74,-99.99,,,-99.99,,2013-04-26 17:31:00,
2013-04-26 13:42:00,44.0,36.0,30.14,SSW,207,11.0,-999.0,74,-99.99,,,-99.99,,2013-04-26 17:42:00,
2013-04-26 13:52:00,45.0,37.0,30.14,South,187,12.0,-999.0,73,-99.99,,,-99.99,,2013-04-26 17:52:00,
2013-04-26 14:02:00,45.0,37.0,30.14,SW,218,11.0,-999.0,73,-99.99,,,-99.99,,2013-04-26 18:02:00,
2013-04-26 14:12:00,45.0,37.0,30.14,SW,218,11.0,-999.0,73,-99.99,,,-99.99,,2013-04-26 18:12:00,
2013-04-26 14:22:00,47.0,38.0,30.13,South,182,10.0,-999.0,71,-99.99,,,-99.99,,2013-04-26 18:22:00,
2013-04-26 14:33:00,47.0,38.0,30.12,SSW,194,11.0,-999.0,70,-99.99,,,-99.99,,2013-04-26 18:33:00,
2013-04-26 14:42:00,47.0,38.0,30.12,SSW,194,11.0,-999.0,70,-99.99,,,-99.99,,2013-04-26 18:42:00,
2013-04-26 14:52:00,48.0,38.0,30.11,SSW,197,11.0,-999.0,69,-99.99,,,-99.99,,2013-04-26 18:52:00,
2013-04-26 15:01:00,49.0,38.0,30.11,South,190,11.0,-999.0,65,-99.99,,,-99.99,,2013-04-26 19:01:00,
2013-04-26 15:12:00,49.0,38.0,30.11,South,190,11.0,-999.0,65,-99.99,,,-99.99,,2013-04-26 19:12:00,
2013-04-26 15:22:00,51.0,38.0,30.10,SW,219,7.0,-999.0,62,-99.99,,,-99.99,,2013-04-26 19:22:00,
2013-04-26 15:32:00,51.0,38.0,30.10,South,188,9.0,-999.0,60,-99.99,,,-99.99,,2013-04-26 19:32:00,
2013-04-26 15:41:00,51.0,38.0,30.10,South,188,9.0,-999.0,60,-99.99,,,-99.99,,2013-04-26 19:41:00,
2013-04-26 15:52:00,52.0,39.0,30.09,South,191,7.0,-999.0,60,-99.99,,,-99.99,,2013-04-26 19:52:00,
2013-04-26 16:02:00,53.0,38.0,30.09,SSE,161,8.0,-999.0,56,-99.99,,,-99.99,,2013-04-26 20:02:00,
2013-04-26 16:11:00,53.0,38.0,30.09,SSE,161,8.0,-999.0,56,-99.99,,,-99.99,,2013-04-26 20:11:00,
2013-04-26 16:21:00,54.0,38.0,30.09,SSW,202,7.0,-999.0,54,-99.99,,,-99.99,,2013-04-26 20:21:00,
2013-04-26 16:32:00,55.0,38.0,30.09,South,185,6.0,-999.0,52,-99.99,,,-99.99,,2013-04-26 20:32:00,
2013-04-26 16:42:00,55.0,38.0,30.09,South,185,6.0,-999.0,52,-99.99,,,-99.99,,2013-04-26 20:42:00,
2013-04-26 16:52:00,56.0,38.0,30.09,South,183,5.0,-999.0,50,-99.99,,,-99.99,,2013-04-26 20:52:00,
2013-04-26 17:01:00,56.0,37.0,30.08,South,186,6.0,-999.0,48,-99.99,,,-99.99,,2013-04-26 21:01:00,
2013-04-26 17:11:00,56.0,37.0,30.08,South,186,6.0,-999.0,48,-99.99,,,-99.99,,2013-04-26 21:11:00,
2013-04-26 17:22:00,57.0,37.0,30.08,SW,229,3.0,-999.0,47,-99.99,,,-99.99,,2013-04-26 21:22:00,
2013-04-26 17:33:00,58.0,36.0,30.09,South,187,6.0,-999.0,44,-99.99,,,-99.99,,2013-04-26 21:33:00,
2013-04-26 17:42:00,58.0,36.0,30.09,South,187,6.0,-999.0,44,-99.99,,,-99.99,,2013-04-26 21:42:00,
2013-04-26 17:53:00,58.0,36.0,30.09,SW,227,4.0,-999.0,44,-99.99,,,-99.99,,2013-04-26 21:53:00,
2013-04-26 18:02:00,58.0,36.0,30.09,SSW,192,3.0,-999.0,44,-99.99,,,-99.99,,2013-04-26 22:02:00,
2013-04-26 18:12:00,58.0,36.0,30.09,SSW,192,3.0,-999.0,44,-99.99,,,-99.99,,2013-04-26 22:12:00,
2013-04-26 18:23:00,59.0,37.0,30.09,West,259,4.0,-999.0,43,-99.99,,,-99.99,,2013-04-26 22:23:00,
2013-04-26 18:33:00,60.0,37.0,30.09,West,271,4.0,-999.0,42,-99.99,,,-99.99,,2013-04-26 22:33:00,
2013-04-26 18:42:00,60.0,37.0,30.09,West,271,4.0,-999.0,42,-99.99,,,-99.99,,2013-04-26 22:42:00,
2013-04-26 18:52:00,60.0,37.0,30.09,West,272,4.0,-999.0,42,-99.99,,,-99.99,,2013-04-26 22:52:00,
2013-04-26 19:02:00,60.0,37.0,30.09,West,272,4.0,-999.0,42,-99.99,,,-99.99,,2013-04-26 23:02:00,
2013-04-26 19:11:00,60.0,37.0,30.09,West,272,4.0,-999.0,42,-99.99,,,-99.99,,2013-04-26 23:11:00,
2013-04-26 19:21:00,60.0,37.0,30.10,SSW,207,2.0,-999.0,42,-99.99,,,-99.99,,2013-04-26 23:21:00,
2013-04-26 19:32:00,60.0,36.0,30.11,West,263,3.0,-999.0,41,-99.99,,,-99.99,,2013-04-26 23:32:00,
2013-04-26 19:42:00,60.0,36.0,30.11,West,263,3.0,-999.0,41,-99.99,,,-99.99,,2013-04-26 23:42:00,
2013-04-26 19:52:00,60.0,37.0,30.11,SSW,213,2.0,-999.0,42,-99.99,,,-99.99,,2013-04-26 23:52:00,
2013-04-26 20:01:00,59.0,37.0,30.11,SSW,209,1.0,-999.0,43,-99.99,,,-99.99,,2013-04-27 00:01:00,
2013-04-26 20:11:00,59.0,37.0,30.11,SSW,209,1.0,-999.0,43,-99.99,,,-99.99,,2013-04-27 00:11:00,
2013-04-26 20:21:00,58.0,36.0,30.11,SSW,209,0.0,-999.0,44,-99.99,,,-99.99,,2013-04-27 00:21:00,
2013-04-26 20:32:00,57.0,36.0,30.11,West,259,0.0,-999.0,46,-99.99,,,-99.99,,2013-04-27 00:32:00,
2013-04-26 20:42:00,57.0,36.0,30.11,West,259,0.0,-999.0,46,-99.99,,,-99.99,,2013-04-27 00:42:00,
2013-04-26 20:52:00,56.0,37.0,30.12,WSW,257,0.0,-999.0,49,-99.99,,,-99.99,,2013-04-27 00:52:00,
2013-04-26 21:01:00,53.0,36.0,30.12,WSW,257,0.0,-999.0,53,-99.99,,,-99.99,,2013-04-27 01:01:00,
2013-04-26 21:12:00,53.0,36.0,30.12,WSW,257,0.0,-999.0,53,-99.99,,,-99.99,,2013-04-27 01:12:00,
2013-04-26 21:21:00,51.0,36.0,30.13,WSW,258,0.0,-999.0,57,-99.99,,,-99.99,,2013-04-27 01:21:00,
2013-04-26 21:32:00,48.0,36.0,30.14,WSW,258,0.0,-999.0,62,-99.99,,,-99.99,,2013-04-27 01:32:00,
2013-04-26 21:42:00,48.0,36.0,30.14,WSW,258,0.0,-999.0,62,-99.99,,,-99.99,,2013-04-27 01:42:00,
2013-04-26 21:52:00,47.0,36.0,30.15,WSW,258,0.0,-999.0,65,-99.99,,,-99.99,,2013-04-27 01:52:00,
2013-04-26 22:01:00,45.0,35.0,30.15,WSW,258,0.0,-999.0,68,-99.99,,,-99.99,,2013-04-27 02:01:00,
2013-04-26 22:11:00,45.0,35.0,30.15,WSW,258,0.0,-999.0,68,-99.99,,,-99.99,,2013-04-27 02:11:00,
2013-04-26 22:22:00,44.0,35.0,30.15,WSW,258,0.0,-999.0,71,-99.99,,,-99.99,,2013-04-27 02:22:00,
2013-04-26 22:32:00,43.0,35.0,30.16,WSW,258,0.0,-999.0,73,-99.99,,,-99.99,,2013-04-27 02:32:00,
2013-04-26 22:42:00,43.0,35.0,30.16,WSW,258,0.0,-999.0,73,-99.99,,,-99.99,,2013-04-27 02:42:00,
2013-04-26 22:52:00,42.0,35.0,30.16,WSW,258,0.0,-999.0,75,-99.99,,,-99.99,,2013-04-27 02:52:00,
2013-04-26 23:02:00,41.0,35.0,30.16,WSW,258,0.0,-999.0,78,-99.99,,,-99.99,,2013-04-27 03:02:00,
2013-04-26 23:11:00,41.0,35.0,30.16,WSW,258,0.0,-999.0,78,-99.99,,,-99.99,,2013-04-27 03:11:00,
2013-04-26 23:22:00,40.0,34.0,30.17,WSW,258,0.0,-999.0,79,-99.99,,,-99.99,,2013-04-27 03:22:00,
2013-04-26 23:33:00,40.0,34.0,30.17,WSW,258,0.0,-999.0,80,-99.99,,,-99.99,,2013-04-27 03:33:00,
2013-04-26 23:43:00,40.0,34.0,30.17,WSW,258,0.0,-999.0,80,-99.99,,,-99.99,,2013-04-27 03:43:00,
2013-04-26 23:53:00,39.0,33.0,30.17,WSW,258,0.0,-999.0,80,-99.99,,,-99.99,,2013-04-27 03:53:00,